| time (UTC) | temp C | wind direction | speed KPH | gust KPH | rain 1hr cm | rain 24hr cm | rain mn cm | humidity % | barometer mb |
| 20260906191436 | 17 | 273 | 14.5 | 25.7 | 0.00 | 0.00 | 0.00 | 74 | 1015.2 |
| 20260906190921 | 17 | 265 | 11.3 | 27.4 | 0.00 | 0.00 | 0.00 | 74 | 1015.4 |
| 20260906190428 | 17 | 294 | 11.3 | 22.5 | 0.00 | 0.00 | 0.00 | 74 | 1015.3 |
| 20260906185928 | 17 | 278 | 14.5 | 22.5 | 0.00 | 0.00 | 0.00 | 73 | 1015.4 |
| 20260906185437 | 17 | 285 | 11.3 | 20.9 | 0.00 | 0.00 | 0.00 | 74 | 1015.5 |
| 20260906184931 | 17 | 280 | 9.7 | 19.3 | 0.00 | 0.00 | 0.00 | 74 | 1015.5 |
| 20260906184416 | 17 | 200 | 6.4 | 19.3 | 0.00 | 0.00 | 0.00 | 75 | 1015.5 |
| 20260906183921 | 17 | 261 | 11.3 | 19.3 | 0.00 | 0.00 | 0.00 | 74 | 1015.5 |
| 20260906183427 | 17 | 222 | 11.3 | 19.3 | 0.00 | 0.00 | 0.00 | 74 | 1015.5 |
| 20260906182929 | 17 | 246 | 9.7 | 19.3 | 0.00 | 0.00 | 0.00 | 75 | 1015.4 |
| 20260906182434 | 17 | 238 | 4.8 | 16.1 | 0.00 | 0.00 | 0.00 | 76 | 1015.5 |
| 20260906181920 | 17 | 311 | 8.0 | 22.5 | 0.00 | 0.00 | 0.00 | 75 | 1015.5 |
| 20260906181422 | 16 | 244 | 11.3 | 22.5 | 0.00 | 0.00 | 0.00 | 75 | 1015.4 |
| 20260906180924 | 17 | 257 | 14.5 | 20.9 | 0.00 | 0.00 | 0.00 | 75 | 1015.4 |
| 20260906180428 | 17 | 276 | 11.3 | 24.1 | 0.00 | 0.00 | 0.00 | 75 | 1015.4 |
| 20260906175932 | 17 | 252 | 8.0 | 24.1 | 0.00 | 0.00 | 0.00 | 75 | 1015.4 |
| 20260906175417 | 17 | 275 | 9.7 | 20.9 | 0.00 | 0.00 | 0.00 | 75 | 1015.5 |
| 20260906174923 | 17 | 240 | 11.3 | 20.9 | 0.00 | 0.00 | 0.00 | 75 | 1015.4 |
| 20260906174429 | 17 | 280 | 9.7 | 20.9 | 0.00 | 0.00 | 0.00 | 74 | 1015.4 |
| 20260906173931 | 17 | 309 | 8.0 | 17.7 | 0.00 | 0.00 | 0.00 | 75 | 1015.5 |
| 20260906173431 | 17 | 311 | 8.0 | 17.7 | 0.00 | 0.00 | 0.00 | 75 | 1015.5 |
| 20260906172924 | 17 | 284 | 3.2 | 16.1 | 0.00 | 0.00 | 0.00 | 76 | 1015.4 |
| 20260906172432 | 17 | 268 | 9.7 | 20.9 | 0.00 | 0.00 | 0.00 | 76 | 1015.4 |
| 20260906171937 | 17 | 287 | 9.7 | 20.9 | 0.00 | 0.00 | 0.00 | 77 | 1015.4 |
| 20260906171453 | 17 | 270 | 8.0 | 17.7 | 0.00 | 0.00 | 0.00 | 77 | 1015.4 |
| 20260906170917 | 17 | 217 | 9.7 | 20.9 | 0.00 | 0.00 | 0.00 | 76 | 1015.4 |
| 20260906170438 | 17 | 278 | 11.3 | 20.9 | 0.00 | 0.00 | 0.00 | 76 | 1015.3 |
| 20260906165950 | 17 | 251 | 9.7 | 17.7 | 0.00 | 0.00 | 0.00 | 77 | 1015.4 |
| 20260906165433 | 17 | 221 | 6.4 | 22.5 | 0.00 | 0.00 | 0.00 | 77 | 1015.4 |
| 20260906164920 | 17 | 242 | 6.4 | 22.5 | 0.00 | 0.00 | 0.00 | 77 | 1015.3 |
| 20260906164424 | 17 | 268 | 6.4 | 24.1 | 0.00 | 0.00 | 0.00 | 77 | 1015.2 |
| 20260906163932 | 17 | 177 | 12.9 | 24.1 | 0.00 | 0.00 | 0.00 | 76 | 1015.3 |
| 20260906163417 | 17 | 226 | 8.0 | 12.9 | 0.00 | 0.00 | 0.00 | 77 | 1015.2 |
| 20260906162921 | 17 | 295 | 3.2 | 14.5 | 0.00 | 0.00 | 0.00 | 77 | 1015.1 |
| 20260906162443 | 17 | 339 | 6.4 | 14.5 | 0.00 | 0.00 | 0.00 | 78 | 1015.0 |
| 20260906161928 | 17 | 206 | 6.4 | 14.5 | 0.00 | 0.00 | 0.00 | 78 | 1015.1 |
| 20260906161434 | 16 | 52 | 4.8 | 14.5 | 0.00 | 0.00 | 0.00 | 79 | 1015.2 |
| 20260906160917 | 16 | 292 | 4.8 | 12.9 | 0.00 | 0.00 | 0.00 | 79 | 1015.3 |
| 20260906160419 | 16 | 334 | 4.8 | 12.9 | 0.00 | 0.00 | 0.00 | 80 | 1015.3 |
| 20260906155921 | 16 | 33 | 4.8 | 14.5 | 0.00 | 0.00 | 0.00 | 80 | 1015.4 |
| 20260906155420 | 16 | 256 | 6.4 | 19.3 | 0.00 | 0.00 | 0.00 | 80 | 1015.4 |
| 20260906154955 | 16 | 313 | 6.4 | 17.7 | 0.00 | 0.00 | 0.00 | 81 | 1015.4 |
| 20260906154418 | 16 | 201 | 8.0 | 19.3 | 0.00 | 0.00 | 0.00 | 81 | 1015.4 |
| 20260906153922 | 16 | 273 | 11.3 | 19.3 | 0.00 | 0.00 | 0.00 | 81 | 1015.4 |
| 20260906153424 | 15 | 295 | 8.0 | 24.1 | 0.00 | 0.00 | 0.00 | 82 | 1015.5 |
| 20260906152927 | 15 | 254 | 9.7 | 24.1 | 0.00 | 0.00 | 0.00 | 82 | 1015.6 |
| 20260906152433 | 15 | 261 | 12.9 | 24.1 | 0.00 | 0.00 | 0.00 | 83 | 1015.6 |
| 20260906151934 | 15 | 251 | 12.9 | 24.1 | 0.00 | 0.00 | 0.00 | 83 | 1015.6 |
| 20260906151443 | 15 | 235 | 9.7 | 20.9 | 0.00 | 0.00 | 0.00 | 83 | 1015.6 |
| 20260906150928 | 15 | 239 | 6.4 | 22.5 | 0.00 | 0.00 | 0.00 | 83 | 1015.6 |
| 20260906150435 | 15 | 284 | 11.3 | 22.5 | 0.00 | 0.00 | 0.00 | 83 | 1015.7 |
| 20260906145919 | 15 | 251 | 9.7 | 24.1 | 0.00 | 0.00 | 0.00 | 84 | 1015.6 |
| 20260906145425 | 15 | 278 | 14.5 | 22.5 | 0.00 | 0.00 | 0.00 | 84 | 1015.5 |
| 20260906144932 | 15 | 247 | 12.9 | 22.5 | 0.00 | 0.00 | 0.00 | 84 | 1015.4 |
| 20260906144434 | 14 | 188 | 11.3 | 19.3 | 0.00 | 0.00 | 0.00 | 84 | 1015.5 |
| 20260906143920 | 14 | 247 | 11.3 | 20.9 | 0.00 | 0.00 | 0.00 | 84 | 1015.5 |
| 20260906143423 | 14 | 237 | 9.7 | 19.3 | 0.00 | 0.00 | 0.00 | 84 | 1015.4 |
| 20260906142927 | 14 | 282 | 8.0 | 19.3 | 0.00 | 0.00 | 0.00 | 84 | 1015.3 |
| 20260906142433 | 14 | 229 | 8.0 | 17.7 | 0.00 | 0.00 | 0.00 | 84 | 1015.3 |
| 20260906141941 | 14 | 190 | 6.4 | 22.5 | 0.00 | 0.00 | 0.00 | 84 | 1015.2 |
| 20260906141424 | 14 | 261 | 12.9 | 22.5 | 0.00 | 0.00 | 0.00 | 84 | 1015.1 |
| 20260906140926 | 14 | 217 | 8.0 | 22.5 | 0.00 | 0.00 | 0.00 | 84 | 1015.0 |
| 20260906140429 | 14 | 273 | 11.3 | 24.1 | 0.00 | 0.00 | 0.00 | 84 | 1014.9 |
| 20260906135934 | 14 | 277 | 6.4 | 24.1 | 0.00 | 0.00 | 0.00 | 84 | 1014.8 |
| 20260906135421 | 14 | 282 | 12.9 | 24.1 | 0.00 | 0.00 | 0.00 | 84 | 1014.8 |
| 20260906134925 | 14 | 273 | 9.7 | 20.9 | 0.00 | 0.00 | 0.00 | 84 | 1014.7 |
| 20260906134429 | 14 | 265 | 11.3 | 24.1 | 0.00 | 0.00 | 0.00 | 84 | 1014.6 |
| 20260906133936 | 14 | 242 | 14.5 | 25.7 | 0.00 | 0.00 | 0.00 | 84 | 1014.6 |
| 20260906133419 | 14 | 252 | 14.5 | 29.0 | 0.00 | 0.00 | 0.00 | 84 | 1014.5 |
| 20260906132926 | 14 | 268 | 16.1 | 29.0 | 0.00 | 0.00 | 0.00 | 84 | 1014.4 |
| 20260906132431 | 14 | 261 | 17.7 | 32.2 | 0.00 | 0.00 | 0.00 | 84 | 1014.4 |
| 20260906131917 | 14 | 229 | 19.3 | 30.6 | 0.00 | 0.00 | 0.00 | 84 | 1014.4 |
| 20260906131422 | 14 | 268 | 16.1 | 29.0 | 0.00 | 0.00 | 0.00 | 84 | 1014.3 |
| 20260906130928 | 14 | 280 | 19.3 | 32.2 | 0.00 | 0.00 | 0.00 | 84 | 1014.4 |
| 20260906130434 | 14 | 301 | 20.9 | 32.2 | 0.00 | 0.00 | 0.00 | 84 | 1014.2 |
| 20260906125920 | 14 | 280 | 17.7 | 30.6 | 0.00 | 0.00 | 0.00 | 84 | 1014.2 |
| 20260906125421 | 14 | 276 | 17.7 | 32.2 | 0.00 | 0.00 | 0.00 | 84 | 1014.2 |
| 20260906124927 | 14 | 282 | 20.9 | 32.2 | 0.00 | 0.00 | 0.00 | 84 | 1014.1 |
| 20260906124434 | 14 | 270 | 16.1 | 30.6 | 0.00 | 0.00 | 0.00 | 84 | 1014.0 |
| 20260906123922 | 14 | 271 | 17.7 | 29.0 | 0.00 | 0.00 | 0.00 | 84 | 1014.0 |
| 20260906123428 | 14 | 264 | 19.3 | 29.0 | 0.00 | 0.00 | 0.00 | 84 | 1014.1 |
| 20260906122932 | 14 | 232 | 16.1 | 30.6 | 0.00 | 0.00 | 0.00 | 84 | 1014.1 |
| 20260906122419 | 14 | 258 | 17.7 | 30.6 | 0.00 | 0.00 | 0.00 | 84 | 1014.1 |
| 20260906121921 | 14 | 270 | 16.1 | 25.7 | 0.00 | 0.00 | 0.00 | 84 | 1014.1 |
| 20260906121427 | 14 | 283 | 11.3 | 22.5 | 0.00 | 0.00 | 0.00 | 84 | 1014.0 |
| 20260906120935 | 14 | 277 | 6.4 | 19.3 | 0.00 | 0.00 | 0.00 | 84 | 1014.2 |
| 20260906120421 | 14 | 268 | 11.3 | 19.3 | 0.00 | 0.00 | 0.00 | 84 | 1014.3 |
| 20260906115947 | 14 | 275 | 4.8 | 16.1 | 0.00 | 0.00 | 0.00 | 84 | 1014.3 |
| 20260906115433 | 15 | 236 | 8.0 | 19.3 | 0.00 | 0.00 | 0.00 | 84 | 1014.3 |
| 20260906114920 | 15 | 249 | 4.8 | 22.5 | 0.00 | 0.00 | 0.00 | 84 | 1014.4 |
| 20260906114420 | 15 | 254 | 12.9 | 22.5 | 0.00 | 0.00 | 0.00 | 84 | 1014.4 |
| 20260906113926 | 15 | 295 | 8.0 | 14.5 | 0.00 | 0.00 | 0.00 | 84 | 1014.4 |
| 20260906113457 | 15 | 183 | 4.8 | 17.7 | 0.00 | 0.00 | 0.00 | 84 | 1014.4 |
| 20260906112919 | 15 | 268 | 8.0 | 17.7 | 0.00 | 0.00 | 0.00 | 84 | 1014.4 |
| 20260906112455 | 15 | 321 | 4.8 | 12.9 | 0.00 | 0.00 | 0.00 | 84 | 1014.3 |
| 20260906111921 | 15 | 251 | 4.8 | 16.1 | 0.00 | 0.00 | 0.00 | 84 | 1014.4 |
| 20260906111429 | 15 | 290 | 6.4 | 19.3 | 0.00 | 0.00 | 0.00 | 84 | 1014.4 |
| 20260906110932 | 15 | 230 | 11.3 | 19.3 | 0.00 | 0.00 | 0.00 | 84 | 1014.4 |
| 20260906110420 | 14 | 213 | 9.7 | 16.1 | 0.00 | 0.00 | 0.00 | 84 | 1014.3 |
| 20260906105924 | 14 | 208 | 4.8 | 17.7 | 0.00 | 0.00 | 0.00 | 84 | 1014.3 |
| 20260906105430 | 14 | 239 | 4.8 | 19.3 | 0.00 | 0.00 | 0.00 | 84 | 1014.3 |
| 20260906104918 | 15 | 226 | 4.8 | 19.3 | 0.00 | 0.00 | 0.00 | 84 | 1014.2 |
| 20260906104426 | 15 | 226 | 6.4 | 14.5 | 0.00 | 0.00 | 0.00 | 84 | 1014.2 |
| 20260906103934 | 15 | 268 | 6.4 | 14.5 | 0.00 | 0.00 | 0.00 | 84 | 1014.3 |
| 20260906103417 | 15 | 251 | 4.8 | 20.9 | 0.00 | 0.00 | 0.00 | 84 | 1014.3 |
| 20260906102919 | 15 | 247 | 9.7 | 20.9 | 0.00 | 0.00 | 0.00 | 84 | 1014.3 |
| 20260906102426 | 15 | 301 | 9.7 | 20.9 | 0.00 | 0.00 | 0.00 | 84 | 1014.2 |
| 20260906101931 | 15 | 252 | 8.0 | 25.7 | 0.00 | 0.00 | 0.00 | 84 | 1014.2 |
| 20260906101417 | 15 | 244 | 11.3 | 25.7 | 0.00 | 0.00 | 0.00 | 84 | 1014.2 |
| 20260906100924 | 15 | 264 | 11.3 | 20.9 | 0.00 | 0.00 | 0.00 | 84 | 1014.1 |
| 20260906100457 | 14 | 237 | 11.3 | 22.5 | 0.00 | 0.00 | 0.00 | 84 | 1014.0 |
| 20260906095922 | 14 | 283 | 12.9 | 29.0 | 0.00 | 0.00 | 0.00 | 84 | 1014.0 |
| 20260906095425 | 14 | 306 | 11.3 | 29.0 | 0.00 | 0.00 | 0.00 | 84 | 1013.8 |
| 20260906094931 | 14 | 211 | 12.9 | 27.4 | 0.00 | 0.00 | 0.00 | 84 | 1013.9 |
| 20260906094416 | 15 | 256 | 14.5 | 27.4 | 0.00 | 0.00 | 0.00 | 84 | 1013.9 |
| 20260906093923 | 15 | 251 | 9.7 | 25.7 | 0.00 | 0.00 | 0.00 | 84 | 1014.0 |
| 20260906093458 | 15 | 256 | 12.9 | 25.7 | 0.00 | 0.00 | 0.00 | 84 | 1014.0 |
| 20260906092928 | 15 | 275 | 9.7 | 25.7 | 0.00 | 0.00 | 0.00 | 84 | 1014.0 |
| 20260906092457 | 15 | 258 | 11.3 | 25.7 | 0.00 | 0.00 | 0.00 | 84 | 1014.0 |
| 20260906091952 | 15 | 282 | 14.5 | 24.1 | 0.00 | 0.00 | 0.00 | 84 | 1014.0 |
| 20260906091417 | 15 | 292 | 11.3 | 27.4 | 0.00 | 0.00 | 0.00 | 84 | 1014.1 |
| 20260906090923 | 15 | 258 | 14.5 | 27.4 | 0.00 | 0.00 | 0.00 | 84 | 1014.1 |
| 20260906090430 | 15 | 273 | 16.1 | 32.2 | 0.00 | 0.00 | 0.00 | 84 | 1014.0 |
| 20260906085934 | 15 | 270 | 14.5 | 32.2 | 0.00 | 0.00 | 0.00 | 84 | 1014.1 |
| 20260906085442 | 15 | 294 | 17.7 | 29.0 | 0.00 | 0.00 | 0.00 | 84 | 1014.2 |
| 20260906084921 | 15 | 228 | 14.5 | 29.0 | 0.00 | 0.00 | 0.00 | 84 | 1014.1 |
| 20260906084427 | 15 | 232 | 14.5 | 37.0 | 0.00 | 0.00 | 0.00 | 84 | 1014.2 |
| 20260906083934 | 15 | 275 | 16.1 | 37.0 | 0.00 | 0.00 | 0.00 | 84 | 1014.1 |
| 20260906083421 | 15 | 251 | 12.9 | 27.4 | 0.00 | 0.00 | 0.00 | 84 | 1014.2 |
| 20260906082927 | 15 | 252 | 14.5 | 30.6 | 0.00 | 0.00 | 0.00 | 84 | 1014.1 |
| 20260906082434 | 15 | 268 | 17.7 | 30.6 | 0.00 | 0.00 | 0.00 | 84 | 1014.1 |
| 20260906081919 | 15 | 284 | 19.3 | 33.8 | 0.00 | 0.00 | 0.00 | 84 | 1014.2 |
| 20260906081425 | 15 | 211 | 19.3 | 33.8 | 0.00 | 0.00 | 0.00 | 84 | 1014.2 |
| 20260906080926 | 15 | 277 | 19.3 | 30.6 | 0.00 | 0.00 | 0.00 | 84 | 1014.3 |
| 20260906080433 | 15 | 256 | 17.7 | 32.2 | 0.00 | 0.00 | 0.00 | 84 | 1014.3 |
| 20260906075918 | 15 | 258 | 19.3 | 37.0 | 0.00 | 0.00 | 0.00 | 84 | 1014.3 |
| 20260906075448 | 15 | 275 | 17.7 | 37.0 | 0.00 | 0.00 | 0.00 | 84 | 1014.2 |
| 20260906074937 | 15 | 268 | 16.1 | 27.4 | 0.00 | 0.00 | 0.00 | 84 | 1014.3 |
| 20260906074444 | 15 | 222 | 16.1 | 27.4 | 0.00 | 0.00 | 0.00 | 84 | 1014.3 |
| 20260906073924 | 15 | 292 | 12.9 | 27.4 | 0.00 | 0.00 | 0.00 | 84 | 1014.3 |
| 20260906073431 | 15 | 273 | 16.1 | 27.4 | 0.00 | 0.00 | 0.00 | 84 | 1014.3 |
| 20260906072937 | 15 | 249 | 14.5 | 29.0 | 0.00 | 0.00 | 0.00 | 84 | 1014.3 |
| 20260906072440 | 15 | 282 | 19.3 | 29.0 | 0.00 | 0.00 | 0.00 | 84 | 1014.4 |
| 20260906071926 | 15 | 270 | 19.3 | 30.6 | 0.00 | 0.00 | 0.00 | 84 | 1014.4 |
| 20260906071433 | 15 | 244 | 16.1 | 30.6 | 0.00 | 0.00 | 0.00 | 84 | 1014.4 |
| 20260906070919 | 15 | 284 | 16.1 | 27.4 | 0.00 | 0.00 | 0.00 | 84 | 1014.5 |
| 20260906070441 | 15 | 280 | 14.5 | 27.4 | 0.00 | 0.00 | 0.00 | 84 | 1014.5 |
| 20260906065941 | 15 | 299 | 16.1 | 29.0 | 0.00 | 0.00 | 0.00 | 84 | 1014.5 |
| 20260906065455 | 15 | 276 | 19.3 | 29.0 | 0.00 | 0.00 | 0.00 | 84 | 1014.5 |
| 20260906064920 | 15 | 359 | 16.1 | 27.4 | 0.00 | 0.00 | 0.00 | 84 | 1014.5 |
| 20260906064424 | 15 | 271 | 14.5 | 25.7 | 0.00 | 0.00 | 0.00 | 83 | 1014.6 |
| 20260906063933 | 15 | 247 | 14.5 | 27.4 | 0.00 | 0.00 | 0.00 | 83 | 1014.5 |
| 20260906063419 | 15 | 270 | 12.9 | 27.4 | 0.00 | 0.00 | 0.00 | 83 | 1014.6 |
| 20260906062920 | 15 | 249 | 14.5 | 24.1 | 0.00 | 0.00 | 0.00 | 83 | 1014.6 |
| 20260906062426 | 15 | 249 | 14.5 | 24.1 | 0.00 | 0.00 | 0.00 | 83 | 1014.6 |
| 20260906061931 | 15 | 264 | 11.3 | 24.1 | 0.00 | 0.00 | 0.00 | 83 | 1014.7 |
| 20260906061419 | 15 | 275 | 11.3 | 24.1 | 0.00 | 0.00 | 0.00 | 83 | 1014.8 |
| 20260906060945 | 15 | 247 | 14.5 | 25.7 | 0.00 | 0.00 | 0.00 | 83 | 1014.8 |
| 20260906060431 | 15 | 257 | 16.1 | 25.7 | 0.00 | 0.00 | 0.00 | 83 | 1014.8 |
| 20260906055931 | 15 | 263 | 11.3 | 29.0 | 0.00 | 0.00 | 0.00 | 83 | 1014.9 |
| 20260906055419 | 15 | 263 | 12.9 | 20.9 | 0.00 | 0.00 | 0.00 | 82 | 1014.8 |
| 20260906054954 | 15 | 264 | 11.3 | 19.3 | 0.00 | 0.00 | 0.00 | 82 | 1014.9 |
| 20260906054419 | 15 | 227 | 9.7 | 20.9 | 0.00 | 0.00 | 0.00 | 82 | 1014.9 |
| 20260906053927 | 15 | 219 | 11.3 | 20.9 | 0.00 | 0.00 | 0.00 | 82 | 1014.9 |
| 20260906053435 | 15 | 280 | 8.0 | 17.7 | 0.00 | 0.00 | 0.00 | 82 | 1015.0 |
| 20260906052920 | 15 | 268 | 8.0 | 16.1 | 0.00 | 0.00 | 0.00 | 81 | 1015.0 |
| 20260906052447 | 15 | 268 | 3.2 | 14.5 | 0.00 | 0.00 | 0.00 | 81 | 1015.1 |
| 20260906051932 | 15 | 226 | 4.8 | 16.1 | 0.00 | 0.00 | 0.00 | 81 | 1015.0 |
| 20260906051420 | 15 | 257 | 8.0 | 16.1 | 0.00 | 0.00 | 0.00 | 81 | 1015.1 |
| 20260906050929 | 15 | 256 | 6.4 | 20.9 | 0.00 | 0.00 | 0.00 | 81 | 1015.1 |
| 20260906050434 | 16 | 240 | 9.7 | 24.1 | 0.00 | 0.00 | 0.00 | 81 | 1015.0 |
| 20260906045917 | 16 | 296 | 8.0 | 24.1 | 0.00 | 0.00 | 0.00 | 80 | 1015.0 |
| 20260906045424 | 16 | 256 | 12.9 | 22.5 | 0.00 | 0.00 | 0.00 | 80 | 1015.0 |
| 20260906044929 | 16 | 264 | 8.0 | 16.1 | 0.00 | 0.00 | 0.00 | 80 | 1015.0 |
| 20260906044431 | 16 | 298 | 6.4 | 16.1 | 0.00 | 0.00 | 0.00 | 80 | 1015.0 |
| 20260906043919 | 16 | 226 | 8.0 | 14.5 | 0.00 | 0.00 | 0.00 | 79 | 1015.0 |
| 20260906043424 | 16 | 222 | 8.0 | 16.1 | 0.00 | 0.00 | 0.00 | 79 | 1014.9 |
| 20260906042930 | 16 | 253 | 9.7 | 16.1 | 0.00 | 0.00 | 0.00 | 80 | 1014.9 |
| 20260906042417 | 16 | 226 | 8.0 | 17.7 | 0.00 | 0.00 | 0.00 | 80 | 1014.8 |
| 20260906041944 | 16 | 285 | 9.7 | 17.7 | 0.00 | 0.00 | 0.00 | 79 | 1014.7 |
| 20260906041443 | 16 | 270 | 11.3 | 22.5 | 0.00 | 0.00 | 0.00 | 79 | 1014.6 |
| 20260906040928 | 16 | 247 | 8.0 | 24.1 | 0.00 | 0.00 | 0.00 | 79 | 1014.6 |
| 20260906040503 | 16 | 292 | 16.1 | 22.5 | 0.00 | 0.00 | 0.00 | 79 | 1014.6 |
| 20260906035918 | 16 | 263 | 11.3 | 22.5 | 0.00 | 0.00 | 0.00 | 78 | 1014.5 |
| 20260906035443 | 16 | 318 | 14.5 | 22.5 | 0.00 | 0.00 | 0.00 | 78 | 1014.5 |
| 20260906034954 | 16 | 268 | 8.0 | 14.5 | 0.00 | 0.00 | 0.00 | 78 | 1014.4 |
| 20260906034436 | 16 | 284 | 8.0 | 16.1 | 0.00 | 0.00 | 0.00 | 78 | 1014.4 |
| 20260906033944 | 16 | 304 | 6.4 | 11.3 | 0.00 | 0.00 | 0.00 | 79 | 1014.2 |
| 20260906033425 | 16 | 301 | 4.8 | 14.5 | 0.00 | 0.00 | 0.00 | 79 | 1014.1 |
| 20260906032930 | 16 | 284 | 6.4 | 14.5 | 0.00 | 0.00 | 0.00 | 79 | 1014.2 |
| 20260906032434 | 16 | 330 | 4.8 | 14.5 | 0.00 | 0.00 | 0.00 | 79 | 1014.2 |
| 20260906031930 | 16 | 19 | 4.8 | 16.1 | 0.00 | 0.00 | 0.00 | 79 | 1014.2 |
| 20260906031431 | 16 | 283 | 6.4 | 20.9 | 0.00 | 0.00 | 0.00 | 79 | 1014.0 |
| 20260906030919 | 16 | 275 | 9.7 | 29.0 | 0.00 | 0.00 | 0.00 | 79 | 1013.9 |
| 20260906030423 | 16 | 322 | 12.9 | 29.0 | 0.00 | 0.00 | 0.00 | 79 | 1013.9 |
| 20260906025930 | 16 | 278 | 11.3 | 19.3 | 0.00 | 0.00 | 0.00 | 79 | 1013.8 |
| 20260906025417 | 16 | 275 | 12.9 | 25.7 | 0.00 | 0.00 | 0.00 | 79 | 1013.8 |
| 20260906024917 | 16 | 278 | 14.5 | 25.7 | 0.00 | 0.00 | 0.00 | 78 | 1013.8 |
| 20260906024438 | 16 | 298 | 11.3 | 24.1 | 0.00 | 0.00 | 0.00 | 78 | 1013.8 |
| 20260906023946 | 17 | 263 | 12.9 | 24.1 | 0.00 | 0.00 | 0.00 | 78 | 1014.0 |
| 20260906023430 | 17 | 270 | 12.9 | 24.1 | 0.00 | 0.00 | 0.00 | 77 | 1014.1 |
| 20260906022936 | 17 | 292 | 9.7 | 20.9 | 0.00 | 0.00 | 0.00 | 77 | 1014.1 |
| 20260906022443 | 17 | 301 | 11.3 | 25.7 | 0.00 | 0.00 | 0.00 | 76 | 1013.9 |
| 20260906021929 | 17 | 275 | 12.9 | 25.7 | 0.00 | 0.00 | 0.00 | 75 | 1013.9 |
| 20260906021416 | 17 | 265 | 12.9 | 37.0 | 0.00 | 0.00 | 0.00 | 75 | 1013.9 |
| 20260906020920 | 17 | 289 | 17.7 | 37.0 | 0.00 | 0.00 | 0.00 | 74 | 1013.9 |
| 20260906020443 | 17 | 277 | 16.1 | 30.6 | 0.00 | 0.00 | 0.00 | 74 | 1013.8 |
| 20260906015954 | 17 | 305 | 16.1 | 29.0 | 0.00 | 0.00 | 0.00 | 74 | 1013.9 |
| 20260906015420 | 17 | 239 | 16.1 | 33.8 | 0.00 | 0.00 | 0.00 | 73 | 1014.0 |
| 20260906014922 | 17 | 291 | 16.1 | 32.2 | 0.00 | 0.00 | 0.00 | 73 | 1014.1 |
| 20260906014429 | 17 | 302 | 16.1 | 33.8 | 0.00 | 0.00 | 0.00 | 73 | 1014.2 |
| 20260906013926 | 17 | 306 | 16.1 | 33.8 | 0.00 | 0.00 | 0.00 | 73 | 1014.1 |
| 20260906013429 | 17 | 292 | 19.3 | 33.8 | 0.00 | 0.00 | 0.00 | 73 | 1014.1 |
| 20260906012934 | 18 | 284 | 17.7 | 32.2 | 0.00 | 0.00 | 0.00 | 72 | 1014.0 |
| 20260906012441 | 17 | 338 | 19.3 | 38.6 | 0.00 | 0.00 | 0.00 | 73 | 1014.0 |
| 20260906011926 | 17 | 283 | 19.3 | 38.6 | 0.00 | 0.00 | 0.00 | 73 | 1014.0 |
| 20260906011432 | 17 | 277 | 24.1 | 41.8 | 0.00 | 0.00 | 0.00 | 73 | 1014.0 |
| 20260906010919 | 18 | 281 | 27.4 | 41.8 | 0.00 | 0.00 | 0.00 | 72 | 1014.0 |
| 20260906010419 | 18 | 282 | 20.9 | 38.6 | 0.00 | 0.00 | 0.00 | 72 | 1014.0 |
| 20260906005921 | 18 | 261 | 22.5 | 38.6 | 0.00 | 0.00 | 0.00 | 71 | 1014.0 |
| 20260906005427 | 18 | 285 | 17.7 | 37.0 | 0.00 | 0.00 | 0.00 | 71 | 1014.1 |
| 20260906004930 | 18 | 276 | 24.1 | 37.0 | 0.00 | 0.00 | 0.00 | 71 | 1014.1 |
| 20260906004433 | 18 | 304 | 19.3 | 33.8 | 0.00 | 0.00 | 0.00 | 71 | 1014.1 |
| 20260906003919 | 18 | 304 | 17.7 | 35.4 | 0.00 | 0.00 | 0.00 | 71 | 1014.2 |
| 20260906003443 | 18 | 265 | 20.9 | 35.4 | 0.00 | 0.00 | 0.00 | 71 | 1014.2 |
| 20260906002925 | 18 | 259 | 19.3 | 33.8 | 0.00 | 0.00 | 0.00 | 70 | 1014.2 |
| 20260906002434 | 19 | 281 | 16.1 | 33.8 | 0.00 | 0.00 | 0.00 | 69 | 1014.2 |
| 20260906001939 | 19 | 270 | 17.7 | 32.2 | 0.00 | 0.00 | 0.00 | 69 | 1014.3 |
| 20260906001456 | 19 | 301 | 16.1 | 32.2 | 0.00 | 0.00 | 0.00 | 69 | 1014.3 |
| 20260906000922 | 19 | 280 | 16.1 | 32.2 | 0.00 | 0.00 | 0.00 | 68 | 1014.3 |
| 20260906000430 | 19 | 294 | 19.3 | 32.2 | 0.00 | 0.00 | 0.00 | 68 | 1014.2 |
| 20260905235930 | 19 | 287 | 20.9 | 33.8 | 0.00 | 0.00 | 0.00 | 68 | 1014.3 |
| 20260905235420 | 19 | 268 | 14.5 | 33.8 | 0.00 | 0.00 | 0.00 | 69 | 1014.3 |
| 20260905234929 | 19 | 280 | 14.5 | 30.6 | 0.00 | 0.00 | 0.00 | 69 | 1014.5 |
| 20260905234435 | 19 | 277 | 16.1 | 29.0 | 0.00 | 0.00 | 0.00 | 69 | 1014.4 |
| 20260905233923 | 18 | 293 | 17.7 | 27.4 | 0.00 | 0.00 | 0.00 | 69 | 1014.5 |
| 20260905233428 | 18 | 303 | 17.7 | 35.4 | 0.00 | 0.00 | 0.00 | 70 | 1014.6 |
| 20260905232931 | 18 | 282 | 20.9 | 35.4 | 0.00 | 0.00 | 0.00 | 70 | 1014.7 |
| 20260905232418 | 18 | 278 | 17.7 | 29.0 | 0.00 | 0.00 | 0.00 | 71 | 1014.7 |
| 20260905231921 | 18 | 289 | 16.1 | 37.0 | 0.00 | 0.00 | 0.00 | 72 | 1014.8 |
| 20260905231431 | 18 | 272 | 14.5 | 37.0 | 0.00 | 0.00 | 0.00 | 72 | 1014.9 |
| 20260905230918 | 18 | 267 | 12.9 | 30.6 | 0.00 | 0.00 | 0.00 | 73 | 1014.9 |
| 20260905230425 | 18 | 245 | 12.9 | 30.6 | 0.00 | 0.00 | 0.00 | 73 | 1015.0 |
| 20260905225932 | 18 | 275 | 19.3 | 35.4 | 0.00 | 0.00 | 0.00 | 72 | 1014.9 |
| 20260905225419 | 18 | 275 | 14.5 | 37.0 | 0.00 | 0.00 | 0.00 | 72 | 1014.9 |
| 20260905224921 | 19 | 257 | 20.9 | 37.0 | 0.00 | 0.00 | 0.00 | 71 | 1014.8 |
| 20260905224424 | 19 | 286 | 17.7 | 33.8 | 0.00 | 0.00 | 0.00 | 70 | 1014.8 |
| 20260905223930 | 19 | 284 | 11.3 | 33.8 | 0.00 | 0.00 | 0.00 | 70 | 1014.8 |
| 20260905223435 | 20 | 299 | 19.3 | 32.2 | 0.00 | 0.00 | 0.00 | 69 | 1014.7 |
| 20260905222922 | 20 | 268 | 19.3 | 32.2 | 0.00 | 0.00 | 0.00 | 68 | 1014.7 |
| 20260905222427 | 20 | 280 | 14.5 | 24.1 | 0.00 | 0.00 | 0.00 | 68 | 1014.7 |
| 20260905221936 | 20 | 258 | 14.5 | 32.2 | 0.00 | 0.00 | 0.00 | 67 | 1014.7 |
| 20260905221424 | 20 | 240 | 19.3 | 32.2 | 0.00 | 0.00 | 0.00 | 66 | 1014.6 |
| 20260905220933 | 20 | 263 | 16.1 | 30.6 | 0.00 | 0.00 | 0.00 | 69 | 1014.7 |
| 20260905220417 | 19 | 287 | 16.1 | 38.6 | 0.00 | 0.00 | 0.00 | 70 | 1014.6 |
| 20260905215944 | 19 | 275 | 24.1 | 38.6 | 0.00 | 0.00 | 0.00 | 71 | 1014.6 |
| 20260905215431 | 18 | 268 | 27.4 | 41.8 | 0.00 | 0.00 | 0.00 | 71 | 1014.6 |
| 20260905214917 | 18 | 290 | 27.4 | 41.8 | 0.00 | 0.00 | 0.00 | 71 | 1014.8 |
| 20260905214441 | 19 | 275 | 25.7 | 41.8 | 0.00 | 0.00 | 0.00 | 71 | 1014.8 |
| 20260905213926 | 19 | 278 | 30.6 | 41.8 | 0.00 | 0.00 | 0.00 | 70 | 1014.9 |
| 20260905213427 | 20 | 287 | 22.5 | 35.4 | 0.00 | 0.00 | 0.00 | 70 | 1014.7 |
| 20260905212933 | 20 | 261 | 19.3 | 32.2 | 0.00 | 0.00 | 0.00 | 70 | 1014.7 |
| 20260905212441 | 20 | 278 | 17.7 | 35.4 | 0.00 | 0.00 | 0.00 | 70 | 1014.7 |
| 20260905211928 | 20 | 271 | 19.3 | 35.4 | 0.00 | 0.00 | 0.00 | 70 | 1014.8 |
| 20260905211435 | 20 | 261 | 20.9 | 33.8 | 0.00 | 0.00 | 0.00 | 69 | 1014.8 |
| 20260905210924 | 20 | 277 | 22.5 | 32.2 | 0.00 | 0.00 | 0.00 | 68 | 1014.8 |
| 20260905210427 | 20 | 277 | 19.3 | 32.2 | 0.00 | 0.00 | 0.00 | 67 | 1014.9 |
| 20260905205930 | 20 | 237 | 17.7 | 33.8 | 0.00 | 0.00 | 0.00 | 67 | 1015.0 |
| 20260905205418 | 20 | 258 | 20.9 | 35.4 | 0.00 | 0.00 | 0.00 | 66 | 1014.8 |
| 20260905204924 | 20 | 285 | 22.5 | 35.4 | 0.00 | 0.00 | 0.00 | 67 | 1014.9 |
| 20260905204429 | 20 | 284 | 24.1 | 35.4 | 0.00 | 0.00 | 0.00 | 67 | 1014.8 |
| 20260905203936 | 20 | 273 | 16.1 | 33.8 | 0.00 | 0.00 | 0.00 | 66 | 1014.7 |
| 20260905203453 | 20 | 284 | 24.1 | 33.8 | 0.00 | 0.00 | 0.00 | 65 | 1014.8 |
| 20260905202938 | 20 | 271 | 14.5 | 33.8 | 0.00 | 0.00 | 0.00 | 64 | 1014.8 |
| 20260905202420 | 21 | 219 | 16.1 | 33.8 | 0.00 | 0.00 | 0.00 | 63 | 1014.8 |
| 20260905201927 | 21 | 278 | 14.5 | 32.2 | 0.00 | 0.00 | 0.00 | 61 | 1014.7 |
| 20260905201434 | 21 | 230 | 14.5 | 25.7 | 0.00 | 0.00 | 0.00 | 60 | 1014.6 |
| 20260905200919 | 21 | 282 | 8.0 | 25.7 | 0.00 | 0.00 | 0.00 | 64 | 1014.7 |
| 20260905200427 | 20 | 268 | 12.9 | 25.7 | 0.00 | 0.00 | 0.00 | 65 | 1014.9 |
| 20260905195932 | 20 | 304 | 11.3 | 25.7 | 0.00 | 0.00 | 0.00 | 65 | 1014.9 |
| 20260905195419 | 20 | 290 | 8.0 | 19.3 | 0.00 | 0.00 | 0.00 | 65 | 1015.0 |
| 20260905194925 | 20 | 321 | 9.7 | 19.3 | 0.00 | 0.00 | 0.00 | 66 | 1015.0 |
| 20260905194426 | 20 | 299 | 9.7 | 16.1 | 0.00 | 0.00 | 0.00 | 67 | 1015.0 |
| 20260905193932 | 20 | 17 | 6.4 | 19.3 | 0.00 | 0.00 | 0.00 | 68 | 1015.2 |
| 20260905193440 | 20 | 248 | 11.3 | 19.3 | 0.00 | 0.00 | 0.00 | 68 | 1015.2 |
| 20260905192924 | 20 | 277 | 11.3 | 19.3 | 0.00 | 0.00 | 0.00 | 67 | 1015.3 |
| 20260905192429 | 20 | 322 | 11.3 | 19.3 | 0.00 | 0.00 | 0.00 | 67 | 1015.2 |
| 20260905191917 | 20 | 206 | 8.0 | 17.7 | 0.00 | 0.00 | 0.00 | 68 | 1015.3 |